College Station, TX

12:39 PM CDT on May 29, 2017 (GMT -0500)
Easterwood

Weather History for KCLL - June, 2013

Change the Weather History Date:

Thursday, June 27, 2013

  Actual Average Record
Temperature  
Mean Temperature 88 °F 84 °F  
Max Temperature 100 °F 93 °F 104 °F (1980)
Min Temperature 76 °F 74 °F 60 °F (1974)
Degree Days  
Heating Degree Days 0 0  
Month to date heating degree days 0 0  
Since 1 June heating degree days 0 0  
Since 1 July heating degree days 1354 1608  
Cooling Degree Days 23 19  
Month to date cooling degree days 512 460  
Year to date cooling degree days 1076 1048  
Since 1 June cooling degree days 512 460  
Growing Degree Days 38 (Base 50)    
Moisture  
Dew Point 69 °F    
Average Humidity 62    
Maximum Humidity 94    
Minimum Humidity 29    
Precipitation  
Precipitation 0.00 in 0.12 in 1.80 in (2004)
Month to date precipitation 1.25 4.11  
Year to date precipitation 17.52 20.36  
Sea Level Pressure  
Sea Level Pressure 29.97 in    
Wind  
Wind Speed 6 mph (South)    
Max Wind Speed 12 mph    
Max Gust Speed -    
Visibility 10 miles    
Events      
T = Trace of Precipitation, MM = Missing Value Source: NWS Daily Summary

Daily Weather History Graph

Daily Weather History Graph

Search for Another Location

Airport or City:

Trip Planner

Search our weather history database for the weather conditions in past years. The results will help you decide how hot, cold, wet, or windy it might be!

Date:

Astronomy

Jun. 27, 2013 Rise Set
Actual Time 6:25 AM CDT 8:31 PM CDT
Civil Twilight 5:57 AM CDT 8:59 PM CDT
Nautical Twilight 5:23 AM CDT 9:33 PM CDT
Astronomical Twilight 4:47 AM CDT 10:09 PM CDT
Moon 11:53 PM CDT (6/27) 11:06 AM CDT (6/27)
Length of Visible Light 15h 02m
Length of Day
14h 06m
Waning Gibbous, 76% of the Moon is Illuminated
Jun 27
Waning Gibbous
Jun 29
Last Quarter
Jul 8
New
Jul 15
First Quarter
Jul 22
Full

Hourly Weather History & Observations

Time (CDT) Temp. Heat Index Dew Point Humidity Pressure Visibility Wind Dir Wind Speed Gust Speed Precip Events Conditions
12:53 AM 81.0 °F 84.9 °F 71.1 °F 72% 29.96 in 10.0 mi South 11.5 mph - N/A   Clear
1:53 AM 79.0 °F - 73.0 °F 82% 29.95 in 10.0 mi South 8.1 mph - N/A   Clear
2:53 AM 78.1 °F - 73.0 °F 84% 29.96 in 10.0 mi South 6.9 mph - N/A   Clear
3:25 AM 77.0 °F - 73.4 °F 89% 29.98 in 10.0 mi South 6.9 mph - N/A   Mostly Cloudy
3:53 AM 77.0 °F - 73.9 °F 90% 29.96 in 10.0 mi South 6.9 mph - N/A   Scattered Clouds
4:53 AM 75.9 °F - 73.0 °F 91% 29.98 in 10.0 mi Calm Calm - N/A   Mostly Cloudy
5:06 AM 75.2 °F - 73.4 °F 94% 29.99 in 10.0 mi Calm Calm - N/A   Overcast
5:35 AM 75.2 °F - 73.4 °F 94% 30.00 in 10.0 mi Calm Calm - N/A   Overcast
5:53 AM 75.9 °F - 73.9 °F 94% 29.99 in 10.0 mi SSE 3.5 mph - N/A   Overcast
6:50 AM 77.0 °F - 73.4 °F 89% 30.02 in 9.0 mi South 4.6 mph - N/A   Overcast
6:53 AM 77.0 °F - 73.9 °F 90% 30.01 in 9.0 mi South 5.8 mph - N/A   Overcast
7:53 AM 77.0 °F - 75.0 °F 94% 30.02 in 8.0 mi South 8.1 mph - N/A   Overcast
8:45 AM 80.6 °F 86.2 °F 75.2 °F 84% 30.04 in 10.0 mi South 8.1 mph - N/A   Mostly Cloudy
8:53 AM 80.1 °F 84.5 °F 73.9 °F 81% 30.03 in 10.0 mi SSW 8.1 mph - N/A   Mostly Cloudy
9:34 AM 82.4 °F 87.2 °F 71.6 °F 70% 30.05 in 10.0 mi SSW 6.9 mph - N/A   Scattered Clouds
9:53 AM 84.0 °F 89.0 °F 71.1 °F 65% 30.03 in 10.0 mi SSW 6.9 mph - N/A   Clear
10:09 AM 84.2 °F 89.6 °F 71.6 °F 66% 30.04 in 10.0 mi WSW 6.9 mph - N/A   Mostly Cloudy
10:50 AM 86.0 °F 91.8 °F 71.6 °F 62% 30.03 in 10.0 mi SW 6.9 mph - N/A   Scattered Clouds
10:53 AM 87.1 °F 92.8 °F 71.1 °F 59% 30.02 in 10.0 mi SW 9.2 mph - N/A   Partly Cloudy
11:53 AM 89.1 °F 93.7 °F 69.1 °F 52% 30.01 in 10.0 mi Variable 5.8 mph - N/A   Clear
12:53 PM 91.9 °F 95.9 °F 68.0 °F 45% 29.99 in 10.0 mi Variable 5.8 mph - N/A   Clear
1:53 PM 95.0 °F 97.9 °F 66.0 °F 38% 29.97 in 10.0 mi Calm Calm - N/A   Clear
2:53 PM 97.0 °F 99.9 °F 64.9 °F 35% 29.94 in 10.0 mi Calm Calm - N/A   Clear
3:53 PM 98.1 °F 99.6 °F 63.0 °F 31% 29.93 in 10.0 mi ESE 4.6 mph - N/A   Clear
4:53 PM 98.1 °F 99.6 °F 63.0 °F 31% 29.91 in 10.0 mi ESE 4.6 mph - N/A   Clear
5:53 PM 100.0 °F 101.8 °F 63.0 °F 29% 29.89 in 10.0 mi East 3.5 mph - N/A   Clear
6:53 PM 99.0 °F 99.5 °F 61.0 °F 28% 29.89 in 10.0 mi East 9.2 mph - N/A   Clear
7:53 PM 96.1 °F 96.0 °F 60.1 °F 30% 29.89 in 10.0 mi ESE 8.1 mph - N/A   Clear
8:53 PM 91.0 °F 90.9 °F 61.0 °F 36% 29.89 in 10.0 mi SE 8.1 mph - N/A   Clear
9:53 PM 89.1 °F 91.0 °F 64.9 °F 45% 29.88 in 10.0 mi SSE 6.9 mph - N/A   Clear
10:53 PM 87.1 °F 88.9 °F 64.9 °F 48% 29.91 in 10.0 mi South 8.1 mph - N/A   Clear
11:53 PM 84.9 °F 88.2 °F 68.0 °F 57% 29.95 in 10.0 mi South 8.1 mph - N/A   Clear